Location: Unspecified
(49.9820°N, 20.4363°E)
Time: 14:44:53
(UTC+01:00)

ISS - Pass Details

Date: 13 November 2018
Orbit: 401 x 408 km, 51.6° (Epoch: 16 November)

Event Time Altitude Azimuth Distance (km) Brightness Sun altitude
Exits shadow 05:02:06 22° 212° (SSW) 940 -2.2 -16.9°
Drops below altitude 10° 05:04:33 10° 164° (SSE) 1,458 -0.7 -16.5°
Sets 05:06:54 0° 148° (SSE) 2,315 0.6 -16.1°
